User: anonymous   Login
Location: Newark
(48.1500°N, 13.1167°E)
Time: 20:05:52
(UTC+00:00)
Language:

NOAA 15 - Orbit

View from above orbital plane
View from above orbital plane
View from above satellite
View from above satellite

Ground track
Ground track

The orbit data is extracted from the following two-line orbital elements,

1 25338U 98030A   21339.42445230  .00000055  00000-0  41420-4 0  9998
2 25338  98.6661   6.2874 0011103 139.0582 221.1434 14.26073936225614
Epoch (UTC): 05 December 2021 10:11:12
Eccentricity: 0.0011103
inclination: 98.6661°
perigee height: 797 km
apogee height: 813 km
right ascension of ascending node: 6.2874°
argument of perigee: 139.0582°
revolutions per day: 14.26073936
mean anomaly at epoch: 221.1434°
orbit number at epoch: 22561

The dashed part of the orbit path shows where the satellite is in the earth's shadow,  

DLR